Lapse_Rate
7.4 7.4 7.4 7.4 7.5 7.6 7.6 7.8 7.7 7.7 7.6 7.7 8.0 7.9 7.5 7.3 7.5 9.3 9.5 9.2 8.9 7.7 8.2 8.3 8.3 7.5 7.6 7.5 6.5 7.2 6.9 7.0 6.7 6.5 6.5 6.5 6.5 6.5 6.5 6.5 6.5 6.5 6.5 6.5 6.5 6.5 6.5 7.0 6.8 6.5 6.6 7.1 7.3 7.3
7.7 7.6 7.5 7.4 7.5 7.5 7.5 7.6 7.6 7.6 7.6 7.6 7.8 7.8 7.4 7.2 7.3 7.9 9.1 9.7 9.3 8.5 8.2 9.1 9.1 9.2 8.8 8.5 7.8 7.7 7.0 6.9 7.0 6.5 6.5 6.5 6.5 6.5 6.5 6.5 6.5 6.5 6.5 6.5 6.5 6.5 6.6 7.3 7.0 7.5 7.8 7.3 7.4 7.5
7.6 7.7 7.7 7.7 7.5 7.5 7.5 7.5 7.5 7.5 7.5 7.5 7.5 7.6 7.5 6.9 7.2 7.6 9.5 9.6 9.4 8.2 8.2 8.4 8.1 9.1 9.4 9.4 9.5 7.4 7.9 8.0 7.7 8.1 6.8 6.5 6.5 6.5 6.5 6.5 6.5 6.5 6.9 6.5 6.5 6.5 6.5 7.2 7.7 8.0 8.1 7.8 8.0 8.1
7.5 7.4 7.7 8.0 7.8 7.5 7.6 7.6 7.7 7.7 7.5 7.5 7.5 7.6 7.7 7.6 7.5 7.8 9.2 9.7 9.3 8.4 6.8 7.4 9.5 8.9 9.8 9.7 9.4 9.3 8.7 8.7 8.5 8.3 6.8 6.5 6.5 6.9 6.5 6.5 6.5 6.7 6.6 6.5 6.5 6.5 7.1 7.5 7.8 7.8 8.0 8.0 8.3 8.3
7.5 7.5 7.6 7.4 7.4 7.5 7.4 7.5 7.6 7.5 7.6 7.7 7.7 7.8 7.9 7.9 7.7 8.2 8.6 8.3 9.6 8.2 6.8 7.3 8.7 9.2 9.6 9.4 9.2 9.2 8.9 8.4 8.0 7.0 6.6 6.5 7.0 6.7 6.7 6.5 6.5 7.0 6.5 6.5 6.5 6.9 7.1 7.1 7.9 8.2 7.8 8.1 8.1 8.0
7.6 7.8 7.9 7.3 6.8 7.2 7.2 7.2 7.3 7.2 7.2 7.7 7.8 7.7 7.7 7.6 7.2 8.8 6.6 9.7 9.1 8.9 7.3 6.5 8.6 8.5 9.0 9.1 8.9 8.6 8.7 8.4 8.2 7.3 6.9 7.5 7.8 6.9 6.5 6.5 6.8 7.7 7.9 7.9 6.9 7.9 7.8 8.0 8.3 8.3 8.1 8.2 8.3 8.1
7.7 8.0 7.9 7.8 7.7 7.3 6.7 6.6 7.2 6.9 6.8 7.1 7.4 7.5 7.4 7.4 8.9 8.1 7.6 7.6 7.8 7.9 7.4 6.6 6.6 8.2 8.7 8.6 8.3 8.3 8.5 7.9 7.9 7.5 7.1 7.2 7.2 7.6 6.5 6.5 6.9 7.7 7.9 7.9 8.2 8.0 7.4 7.8 7.6 8.1 8.3 8.3 7.8 8.5
7.6 7.9 7.6 7.6 7.1 7.4 7.1 6.4 7.0 7.3 7.3 7.5 7.6 7.6 7.8 7.9 8.2 9.0 9.8 7.1 6.2 5.8 7.2 6.5 6.5 7.0 8.4 7.2 6.9 7.9 7.1 7.0 7.3 7.2 7.4 6.9 7.3 7.1 6.5 6.7 7.6 7.9 8.0 7.9 8.0 8.3 8.2 8.3 8.0 8.1 8.5 8.5 8.1 8.2
7.5 7.5 7.6 7.5 7.3 7.5 7.4 7.4 7.7 7.6 7.6 7.6 7.8 7.7 9.3 8.6 8.0 8.1 7.2 7.1 6.4 7.5 6.9 6.9 6.5 6.5 8.2 7.4 7.2 7.2 7.6 6.5 7.6 6.5 6.6 6.9 6.5 6.5 6.5 6.9 7.3 7.5 7.4 7.5 8.2 8.3 8.0 7.5 7.7 8.1 8.1 8.1 7.9 8.0
7.2 7.2 7.2 7.2 7.2 7.4 7.5 7.5 7.6 7.7 7.9 7.5 8.8 8.1 7.1 6.6 5.8 6.7 6.4 6.6 6.7 6.8 7.4 6.6 7.5 6.5 7.4 7.1 6.8 6.8 7.2 6.5 6.5 6.6 7.4 6.5 6.5 7.3 7.7 7.8 7.8 7.8 8.0 8.2 7.4 7.2 7.5 7.5 7.7 7.9 8.0 8.3 8.3 8.3
7.2 7.2 7.2 7.3 7.5 7.6 7.6 7.7 7.8 7.8 7.3 9.1 7.1 7.2 6.8 7.1 6.7 7.6 7.0 7.0 7.2 6.5 7.6 7.4 7.4 6.6 7.8 6.5 6.5 7.2 6.5 6.5 6.5 6.5 6.5 6.5 6.5 6.6 7.8 8.2 8.5 8.3 8.4 8.4 8.3 8.3 8.3 8.2 8.0 8.0 8.0 8.2 8.3 8.3
7.4 7.5 7.5 7.6 7.7 7.8 7.7 7.8 7.8 9.0 8.1 7.8 7.4 8.0 6.7 7.5 7.4 6.6 6.5 6.7 6.5 6.5 7.0 6.6 7.0 7.4 7.5 8.0 6.7 6.8 6.5 6.5 6.5 6.8 6.5 6.5 6.5 7.2 7.6 7.7 7.9 8.2 8.3 8.3 8.5 8.3 8.3 8.3 8.3 8.2 8.2 8.2 8.3 7.0
7.4 7.4 7.4 7.5 7.8 8.1 8.1 8.1 7.9 7.7 6.5 6.8 7.2 7.6 7.5 7.3 6.5 6.5 6.5 6.5 6.5 6.8 7.2 7.1 6.6 7.2 7.5 7.6 6.7 6.5 6.5 6.5 6.7 6.5 6.5 6.5 6.9 7.4 7.7 7.9 7.9 8.3 8.3 8.3 8.3 8.4 8.4 8.3 7.8 7.7 6.7 3.8 3.9 3.4
7.5 7.5 7.6 7.3 7.8 7.8 7.8 8.6 7.6 6.1 5.8 7.3 7.0 6.5 6.5 6.5 6.5 6.5 6.5 6.5 7.1 7.2 7.2 7.2 6.9 6.7 7.1 6.5 6.5 6.5 6.5 6.5 6.5 6.5 6.5 6.5 7.1 7.5 7.7 8.0 8.0 7.7 5.6 7.3 7.5 5.1 3.1 2.6 1.8 1.4 2.2 2.4 2.5 2.9
7.5 7.7 7.9 8.1 8.1 8.0 7.9 8.0 6.9 7.0 7.3 7.2 7.2 6.5 6.5 6.9 7.2 7.2 7.4 7.3 7.6 7.7 7.3 7.1 7.0 7.0 6.5 6.5 6.5 6.5 6.5 6.5 6.5 6.5 6.5 7.0 7.5 7.5 7.3 7.6 4.8 4.1 3.8 3.6 3.7 3.6 3.1 3.0 2.5 2.2 2.6 2.9 2.8 3.2
7.8 7.9 8.6 7.8 8.1 8.0 7.7 7.9 8.6 8.0 8.1 7.5 7.3 6.6 7.0 6.7 6.6 7.0 7.0 7.1 7.9 7.0 7.3 7.5 6.5 6.5 6.5 6.5 6.5 6.5 6.5 6.5 6.5 6.5 7.2 7.6 7.3 6.9 5.9 4.6 3.8 3.8 3.5 3.3 3.5 3.1 3.0 3.3 3.2 2.5 2.9 3.3 3.8 4.0
7.8 9.3 8.2 7.9 8.1 7.9 7.7 7.3 8.0 7.8 7.6 7.1 6.7 7.1 7.1 7.0 6.9 7.0 7.3 7.5 8.3 7.5 6.5 6.5 6.5 6.5 6.5 6.5 6.5 6.5 6.5 6.5 6.8 7.2 7.5 7.6 7.0 5.7 4.2 3.9 4.1 4.1 4.2 4.4 4.5 4.6 3.5 3.2 3.4 4.8 4.7 4.6 5.0 4.3
8.2 8.0 7.1 7.6 8.5 9.2 9.3 8.2 7.4 7.7 6.9 7.3 6.7 6.9 7.3 7.4 7.6 7.2 7.7 8.0 7.8 7.3 7.1 6.6 7.0 6.5 6.5 6.5 6.5 6.5 6.7 6.6 7.3 7.6 7.3 6.3 5.8 5.5 5.9 6.4 4.5 5.3 5.0 5.2 5.5 4.8 4.5 5.8 8.1 8.2 7.5 6.6 5.9 5.7
6.6 6.5 6.2 7.0 8.9 8.9 8.0 8.0 7.6 6.9 7.0 7.4 7.5 7.8 7.6 7.6 7.8 7.8 7.5 8.1 8.2 7.8 7.0 7.0 6.5 6.5 6.5 6.6 6.5 7.1 6.7 7.4 7.3 7.6 7.6 5.9 5.9 5.5 5.1 5.0 4.9 5.9 7.0 7.3 8.3 8.4 8.4 8.6 8.4 8.5 8.5 8.6 8.3 7.7
6.7 6.8 6.8 6.3 7.8 7.1 6.9 7.1 7.3 7.5 6.7 7.3 7.7 7.5 7.6 7.5 7.8 7.7 7.8 7.9 7.9 7.4 6.8 6.5 6.5 6.8 6.9 7.3 7.7 7.7 7.8 8.0 7.8 7.5 7.5 7.9 7.8 6.5 6.6 6.6 8.0 8.0 8.1 8.1 8.3 8.1 8.4 8.4 8.6 8.6 8.4 8.5 7.9 7.7
6.1 8.7 7.0 7.0 5.7 6.2 7.2 7.2 7.3 7.5 7.6 7.2 7.6 7.6 7.3 7.8 7.5 7.4 7.4 8.0 7.3 6.9 6.5 7.3 7.2 6.8 7.1 6.7 6.8 7.5 7.9 7.8 7.9 7.9 7.8 7.7 8.0 8.3 7.8 7.8 7.8 7.9 8.0 8.0 7.9 8.0 7.8 8.3 8.4 8.4 7.6 7.6 7.6 7.5
9.2 7.8 8.7 8.8 7.2 6.2 7.0 8.2 7.7 7.9 7.6 7.3 7.4 7.6 6.9 6.6 6.8 7.2 7.9 7.2 7.0 7.2 7.6 7.6 7.8 7.9 8.0 7.8 8.1 8.0 8.3 7.7 8.3 7.7 6.2 6.9 8.1 7.9 7.6 7.8 7.8 7.5 7.6 7.3 7.9 7.6 7.9 8.5 8.1 8.2 7.8 7.4 7.3 7.0
7.7 7.9 8.5 8.2 7.5 7.4 7.1 8.6 7.2 7.4 6.5 6.6 7.2 6.6 6.6 6.7 7.3 8.1 6.8 7.3 7.3 7.9 8.0 8.2 8.3 8.3 8.0 7.9 7.5 8.0 7.8 8.3 8.2 8.3 8.2 8.4 8.4 8.0 7.9 7.6 7.8 7.3 7.2 7.7 8.3 8.0 7.9 8.0 7.7 7.6 7.8 7.4 7.4 7.0
8.1 7.6 7.1 7.0 7.3 6.6 7.6 7.0 7.6 7.1 7.0 6.6 6.5 6.5 6.5 6.7 7.6 6.8 6.5 6.9 7.4 8.1 8.1 8.0 8.3 8.1 8.2 8.2 8.1 8.2 7.3 8.4 8.5 8.3 7.9 8.1 7.8 8.0 8.2 7.4 7.3 7.5 8.1 8.3 8.2 7.8 7.6 7.4 7.7 8.2 7.4 7.4 7.2 7.0
7.2 7.0 7.0 6.5 7.3 6.6 6.5 6.5 6.5 6.5 6.5 6.5 6.5 6.5 6.5 7.3 6.5 6.5 6.5 6.8 7.5 7.0 7.7 8.1 8.2 8.0 7.6 7.9 8.2 8.3 8.2 8.6 8.3 8.1 8.4 8.6 8.2 7.9 7.7 8.1 7.7 7.6 8.0 6.9 6.9 6.9 6.8 6.7 7.3 7.2 7.2 7.2 7.2 7.3
6.5 7.0 6.7 6.6 6.7 6.5 6.5 6.5 6.5 6.5 6.5 6.5 6.5 6.8 7.0 6.5 6.5 6.5 6.5 7.2 7.5 6.7 5.4 5.6 7.8 7.9 8.0 8.3 8.1 8.2 8.4 8.9 8.7 8.2 8.5 8.7 8.4 7.8 7.2 7.3 7.1 6.8 6.9 7.2 6.8 6.8 6.7 6.6 7.0 7.2 6.8 6.8 7.0 7.1
6.5 6.5 7.4 8.1 7.4 7.2 6.7 6.9 7.1 6.5 6.5 6.5 6.5 6.5 6.5 6.5 6.5 6.5 7.7 8.1 8.0 7.7 8.6 8.0 8.0 8.3 8.3 8.4 8.7 8.9 8.6 8.9 8.8 8.6 8.9 9.2 9.1 9.0 8.3 7.4 7.2 8.3 7.6 6.2 6.0 6.2 6.3 6.3 6.2 6.3 6.6 6.7 6.8 6.9
7.0 7.1 6.5 7.0 7.0 7.3 6.5 6.5 6.5 6.5 6.5 7.0 6.7 6.5 6.5 6.5 6.5 7.5 7.9 8.3 7.1 7.5 7.4 7.3 7.2 7.4 7.3 7.3 6.6 6.3 8.1 7.3 6.2 6.9 8.1 8.4 8.3 7.5 7.2 7.6 7.8 5.0 8.0 6.1 5.6 5.7 5.9 6.2 6.0 6.0 6.1 6.4 6.3 6.1
7.0 7.7 7.5 6.5 6.8 6.8 6.7 6.5 6.5 7.1 7.6 7.1 6.5 6.5 6.6 7.5 7.8 7.8 7.2 6.6 6.3 6.6 5.5 6.2 6.8 5.7 5.5 5.7 5.6 5.6 5.9 6.5 7.2 7.2 7.5 7.5 7.4 7.2 6.8 5.7 6.1 6.5 6.2 6.1 4.9 4.9 5.4 5.7 5.9 6.0 6.1 6.1 6.1 5.7
7.1 7.9 7.0 6.7 6.5 6.5 6.8 7.3 7.2 7.3 7.9 7.4 7.6 7.7 7.3 7.2 5.7 5.8 6.0 5.3 5.4 5.0 4.7 5.1 5.3 5.2 5.8 6.3 6.7 6.8 7.0 7.1 6.7 6.9 7.2 7.3 6.8 6.0 5.3 5.2 5.0 5.3 5.4 5.9 5.8 5.2 4.3 5.3 5.3 6.2 6.4 6.3 6.3 6.3
7.6 7.4 7.0 7.0 6.6 7.1 7.5 7.3 6.9 6.7 6.6 7.1 6.9 7.2 7.1 7.1 6.5 5.9 6.0 6.7 7.5 7.6 7.8 7.8 7.9 7.5 7.3 7.2 6.9 6.8 7.5 7.5 6.3 6.7 6.8 6.7 6.5 6.4 5.6 5.2 5.2 5.3 5.4 5.6 6.0 5.8 6.0 6.0 6.3 6.3 6.4 6.6 6.6 6.7
7.5 7.0 6.8 6.5 6.6 7.5 7.8 7.6 7.4 7.2 7.3 7.2 7.2 7.5 7.4 7.4 7.0 7.5 7.0 7.2 7.7 7.6 7.4 7.2 7.2 7.3 7.4 7.2 6.8 6.8 6.5 6.4 6.1 6.2 5.9 6.1 6.3 6.2 6.6 6.2 5.7 5.2 5.3 5.9 5.9 6.0 6.2 6.5 6.8 6.8 6.8 6.5 7.0 7.3
7.5 7.3 7.2 7.1 6.8 6.9 7.4 7.3 6.9 6.8 7.0 6.9 7.0 7.2 7.3 7.2 6.9 7.4 7.2 7.5 7.3 7.2 6.0 5.9 6.0 6.6 7.1 6.8 6.6 6.9 6.9 6.5 5.9 5.8 5.7 5.6 5.5 6.0 6.4 6.1 5.7 5.6 5.7 5.7 5.8 5.9 6.1 6.2 6.7 7.1 7.1 7.1 7.2 7.2
Wind_Speed
14 14 15 16 16 16 15 15 16 16 16 14 14 14 13 10 3 2 5 4 1 3 6 4 4 7 7 8 6 9 7 6 7 6 6 8 9 9 14 15 17 16 14 13 14 18 19 16 18 12 11 13 13 10
13 14 15 15 15 15 14 15 17 17 17 16 15 14 13 11 4 5 6 3 3 2 4 1 4 5 5 3 5 9 3 4 5 5 7 6 11 11 15 15 17 16 16 13 16 13 14 9 7 9 14 12 14 13
10 13 16 15 15 15 15 15 16 18 17 16 16 15 13 11 6 6 5 4 2 2 3 5 7 11 10 11 8 6 7 6 9 6 5 6 13 10 12 15 20 18 17 12 15 17 20 22 15 17 19 22 18 15
9 11 14 15 15 15 16 17 17 17 17 17 17 15 14 12 9 5 2 2 1 0 2 1 3 9 9 13 13 12 13 9 9 7 7 8 10 9 12 15 15 14 15 16 19 19 18 22 19 15 18 23 22 17
9 14 16 13 15 14 15 17 18 18 18 17 15 14 13 12 8 4 2 3 3 2 3 4 8 12 11 11 15 15 15 14 9 8 8 11 12 13 13 14 17 14 21 14 17 18 18 18 21 20 18 20 21 11
9 12 14 17 13 12 13 15 17 15 15 16 11 12 13 12 7 2 2 5 10 3 1 3 2 9 11 16 15 15 13 12 11 10 8 11 16 9 8 16 24 23 25 25 22 22 23 21 23 23 19 20 17 12
11 15 10 11 13 12 12 14 15 14 15 17 15 13 14 13 8 2 2 4 4 5 2 3 3 2 5 10 9 11 14 8 9 10 12 13 12 12 14 20 21 21 21 17 18 17 19 22 17 16 19 19 10 6
12 15 20 15 12 13 16 13 18 19 18 16 15 13 10 7 7 5 7 9 7 3 2 3 4 5 6 4 4 4 4 3 5 6 6 12 11 12 12 22 23 24 24 24 23 23 25 22 13 23 14 9 6 9
13 14 19 20 17 16 19 20 19 18 17 14 12 10 5 3 2 3 4 6 8 4 3 5 7 2 4 4 3 3 4 5 5 8 12 6 8 10 13 16 19 19 16 17 17 20 17 13 16 16 12 7 8 8
15 17 18 20 21 20 19 17 16 15 13 13 6 2 3 4 5 13 2 3 3 4 4 4 4 5 4 3 4 3 4 4 4 9 7 12 16 22 23 20 16 16 19 16 13 12 12 9 10 11 12 9 8 6
19 19 20 20 19 18 16 15 15 14 12 3 3 3 3 11 3 3 3 4 5 4 5 5 10 10 3 4 3 3 2 4 3 4 6 5 7 14 21 24 22 21 18 17 13 12 9 9 9 8 5 3 3 5
21 21 20 19 17 16 14 13 13 7 2 1 1 3 2 3 3 3 3 3 5 4 4 4 2 1 2 2 2 3 3 4 3 8 4 3 1 3 3 5 5 11 12 13 15 14 8 9 6 4 5 6 6 9
20 20 19 19 18 15 12 11 12 3 1 2 3 4 3 3 5 5 6 4 3 4 3 3 3 3 2 2 2 3 3 4 0 2 3 3 5 1 1 1 1 5 8 11 12 11 11 4 3 6 8 8 10 9
18 18 18 17 14 11 9 9 5 1 5 2 3 5 5 5 5 5 5 1 2 2 3 2 3 4 3 3 2 3 2 2 4 3 4 2 5 4 4 3 4 5 9 6 6 8 9 7 6 9 9 8 10 9
18 17 17 15 13 11 10 9 11 5 2 2 2 4 6 4 2 2 2 2 2 3 3 2 4 3 4 3 3 3 3 4 5 3 2 4 5 5 5 6 6 6 5 5 5 6 7 7 9 10 7 8 9 8
16 12 7 14 13 10 7 8 6 3 1 2 4 4 5 3 5 4 4 5 4 3 1 3 3 3 5 3 4 6 3 4 1 2 3 2 4 4 5 5 4 4 4 4 5 7 8 8 8 9 8 8 7 7
13 3 15 18 14 9 6 2 3 4 3 4 4 3 7 5 3 1 4 4 4 4 4 4 4 6 2 3 4 3 3 2 2 2 1 2 3 4 5 5 4 4 5 4 5 6 7 8 9 8 9 7 7 7
3 1 4 13 15 7 4 3 2 4 6 6 5 5 6 5 2 4 3 3 4 4 3 2 4 3 4 3 2 1 0 1 1 1 0 1 1 3 4 5 5 5 6 5 6 7 7 7 7 6 7 7 7 7
7 2 9 18 15 4 4 5 4 3 6 2 4 6 4 3 4 4 3 4 4 3 2 2 4 4 4 3 2 0 1 2 0 1 1 1 1 2 4 5 5 4 6 7 7 5 5 4 3 5 4 5 5 5
7 6 9 21 9 3 4 3 3 4 3 3 4 4 3 3 3 4 5 6 5 2 4 4 4 3 1 1 2 2 2 1 0 1 2 1 2 2 3 4 4 5 5 4 4 2 3 3 3 3 4 5 5 5
4 5 13 13 2 3 3 2 4 3 3 3 2 3 3 3 4 4 4 6 6 3 4 4 4 3 1 1 2 2 0 1 3 4 4 2 2 2 3 4 4 5 5 4 4 4 4 4 4 4 5 4 3 3
2 7 3 8 2 3 3 3 3 1 3 2 3 4 3 3 4 4 3 5 4 7 7 6 3 3 4 3 3 3 2 2 3 1 1 1 3 3 4 5 5 5 5 4 5 5 5 5 5 5 5 4 5 5
3 2 2 5 4 2 2 1 4 3 3 3 2 3 3 2 2 2 3 5 4 0 2 3 3 3 3 1 1 1 1 3 3 3 2 4 3 2 4 5 5 5 5 6 5 5 5 6 6 5 5 6 5 6
3 2 2 3 6 4 2 4 3 3 2 3 3 3 1 2 2 3 5 5 2 3 3 2 3 3 2 3 3 3 2 2 3 2 2 4 4 4 5 4 5 5 6 5 5 4 5 5 7 7 6 7 7 7
4 6 4 5 4 5 5 4 4 3 3 5 2 3 1 2 2 3 4 2 2 2 2 1 1 2 2 3 1 2 4 4 4 5 2 4 5 3 4 4 4 5 5 4 5 5 5 6 6 7 7 8 9 9
6 5 5 5 4 5 6 4 6 6 5 3 4 1 1 2 3 4 1 2 3 3 2 1 2 2 0 1 2 2 2 2 4 5 4 3 4 4 4 5 5 5 5 5 6 8 8 8 8 10 8 10 10 9
4 4 3 1 1 2 2 1 2 3 4 5 3 4 4 4 5 2 2 2 4 3 3 3 3 3 4 4 3 3 4 4 4 3 3 4 4 4 4 4 5 5 7 8 7 8 9 10 9 10 9 7 8 11
4 7 3 4 3 3 4 3 5 5 5 4 3 6 3 4 1 2 2 3 3 2 2 2 2 3 3 4 4 4 4 2 1 2 3 4 3 2 2 3 2 2 1 5 7 6 7 8 9 9 10 9 8 9
4 9 7 4 4 4 4 4 4 3 2 2 2 3 2 2 4 4 4 4 4 4 3 4 4 4 4 4 4 4 3 3 4 6 8 6 5 4 3 3 4 4 4 3 6 5 7 6 7 7 8 8 8 8
6 9 5 4 3 5 1 1 2 2 2 3 3 2 3 3 5 6 5 5 5 5 4 4 4 4 5 5 5 4 2 2 2 4 6 6 3 3 3 3 4 4 3 4 4 4 4 4 3 4 4 4 5 6
6 6 3 4 4 4 4 3 1 1 0 1 2 2 2 3 3 5 6 4 3 4 5 6 5 4 5 6 6 6 4 1 3 5 5 4 4 3 4 4 2 2 4 5 4 5 5 5 6 7 7 7 7 7
6 5 7 5 6 6 4 5 2 2 4 5 4 3 3 4 3 3 5 5 5 7 8 7 7 7 6 5 4 4 6 5 7 5 7 5 5 5 4 3 2 3 4 6 5 6 6 7 5 6 7 8 8 9
11 6 6 6 4 7 6 6 2 3 2 1 2 2 3 4 5 3 3 6 6 6 8 8 8 7 6 6 4 4 6 6 9 9 7 6 6 5 3 3 3 3 5 5 6 8 9 10 7 8 8 7 8 8
Wind_Direction
159 162 162 159 159 165 166 166 157 152 147 148 150 142 144 132 150 262 91 30 326 132 154 204 151 177 170 194 181 162 171 197 187 215 235 234 241 246 268 255 252 251 244 230 232 244 260 264 284 273 310 314 305 315
166 164 161 160 164 165 167 166 163 160 156 152 149 145 143 149 156 293 116 88 18 73 76 156 231 244 251 286 264 158 197 174 198 228 233 252 251 255 251 256 241 246 257 268 264 264 270 288 277 262 284 298 300 283
175 176 170 172 174 171 168 165 163 166 163 159 157 156 157 151 160 302 105 117 71 22 244 198 225 219 230 234 247 256 213 223 220 220 272 289 260 274 262 251 258 260 255 243 255 263 268 275 311 304 297 294 272 272
173 170 172 173 176 176 175 173 168 170 170 166 166 166 166 166 172 235 122 151 336 35 298 64 146 220 220 218 229 232 255 276 248 252 239 247 259 258 262 279 279 273 291 281 271 269 284 284 288 304 313 316 292 262
178 167 150 157 160 162 176 172 169 166 168 167 175 176 175 170 160 221 238 210 233 282 332 312 310 249 235 227 229 225 228 233 238 228 236 241 249 259 263 268 258 247 251 254 260 269 271 284 299 299 297 280 288 253
176 167 174 171 167 162 162 163 169 170 181 175 175 181 174 162 173 141 356 205 197 161 302 276 304 262 231 221 230 228 223 225 231 228 235 242 244 254 254 247 255 250 254 259 266 273 274 280 278 277 280 274 279 256
184 166 173 146 159 170 172 186 170 167 169 168 168 165 160 162 191 171 338 54 9 99 195 265 259 196 218 217 219 231 224 218 226 231 231 244 247 228 248 257 259 267 274 270 264 270 276 266 288 291 278 260 247 206
172 164 162 162 165 168 156 155 152 148 146 139 135 136 144 163 273 264 201 128 105 93 255 253 255 207 171 197 208 227 215 187 206 230 234 229 247 249 251 252 257 257 258 259 256 257 262 267 265 277 249 215 205 216
155 156 162 158 164 155 147 143 136 134 134 134 134 135 159 225 229 237 179 171 166 213 228 221 242 264 166 214 175 181 209 213 200 220 228 230 216 227 244 249 249 258 266 268 264 259 256 244 242 247 258 231 244 252
147 146 148 144 140 138 138 136 135 135 133 131 162 157 215 199 191 112 120 149 159 194 224 255 241 248 204 253 186 212 194 223 210 221 215 224 246 252 250 251 257 252 254 264 294 245 233 237 236 233 251 242 253 241
139 136 136 136 137 138 140 141 141 134 147 172 189 218 93 146 177 200 211 197 181 213 208 235 235 253 214 245 271 233 244 179 242 165 197 219 241 240 246 239 243 251 254 262 273 260 242 233 237 231 222 220 199 151
138 135 137 139 141 145 147 152 156 188 172 343 359 105 135 204 211 215 213 203 228 240 168 221 229 242 254 252 264 228 251 214 277 152 227 255 308 14 352 356 261 253 264 258 254 255 235 258 252 211 164 163 141 107
141 145 147 149 148 154 163 170 191 111 78 210 209 183 197 167 226 220 197 213 215 178 198 201 202 187 201 235 258 287 250 250 31 232 252 278 85 68 2 340 281 277 264 257 248 242 230 148 36 139 107 98 117 109
150 152 156 161 166 158 175 178 144 246 233 223 177 178 222 177 233 212 250 141 84 104 136 197 241 207 159 191 248 252 258 285 256 235 238 31 79 106 85 47 80 54 18 30 51 58 74 91 83 81 99 117 128 124
156 158 160 164 168 177 182 185 195 231 223 203 217 232 220 234 290 318 262 267 234 165 157 236 257 230 171 212 212 261 230 240 236 251 33 58 102 129 112 89 79 74 66 76 91 94 105 106 103 100 100 112 111 120
157 156 172 163 171 178 186 190 199 210 196 214 228 242 238 255 228 188 219 244 223 118 177 245 257 221 214 207 187 222 242 243 338 45 43 76 128 110 122 108 89 75 86 104 109 114 110 106 109 104 99 102 108 120
173 228 157 171 166 175 203 245 188 210 227 217 236 228 273 298 307 283 223 237 165 161 220 216 225 224 177 222 219 223 228 345 31 358 7 2 150 154 140 126 122 127 119 121 116 110 111 116 125 122 115 120 117 113
233 99 188 180 173 166 195 201 254 222 228 223 237 221 195 236 251 251 243 188 195 217 250 265 310 239 234 235 246 332 284 129 229 295 12 81 138 139 166 140 138 134 128 133 131 130 133 144 134 123 128 133 127 123
224 241 206 179 181 175 188 199 221 244 218 222 232 246 233 233 227 252 284 265 209 155 282 252 255 240 232 245 312 340 288 267 276 142 131 153 53 140 159 129 136 145 146 154 154 155 157 160 128 145 154 167 149 148
275 275 151 172 180 178 212 198 213 253 232 205 217 230 219 216 185 184 206 210 207 204 217 223 239 307 323 21 337 344 28 145 197 313 325 269 232 186 193 186 195 176 170 172 179 143 161 167 165 166 183 175 161 167
186 141 163 176 149 249 287 186 183 232 261 234 187 215 227 193 223 207 217 199 207 221 234 243 261 230 293 327 316 314 309 245 248 273 312 216 201 240 205 205 171 180 189 192 193 188 200 205 174 171 162 159 162 158
89 178 134 187 237 186 247 253 285 173 227 241 208 222 233 208 221 216 214 210 236 233 250 276 285 296 261 259 304 259 338 243 260 284 216 117 162 199 210 202 190 191 201 193 205 186 197 191 165 169 167 153 156 154
166 243 188 191 219 242 260 187 230 222 234 228 200 236 230 217 215 151 232 223 233 235 294 271 284 291 290 298 252 187 228 256 262 265 244 253 260 164 210 206 209 195 207 209 205 184 188 176 170 165 153 158 167 159
15 202 233 212 211 186 173 200 230 249 253 239 230 252 243 226 169 246 256 254 120 141 210 234 259 248 217 241 227 194 183 251 280 265 261 262 241 226 217 218 217 218 217 213 193 175 165 172 164 173 157 180 179 178
181 195 238 203 201 173 198 201 205 231 231 218 250 259 180 192 238 247 250 248 116 66 49 341 240 238 269 285 272 202 203 268 286 299 226 236 256 260 199 210 208 213 203 194 176 164 164 170 173 177 178 191 190 188
216 179 217 206 166 209 186 203 201 222 239 237 244 247 179 228 244 243 239 121 121 156 152 156 345 50 85 9 324 306 313 277 280 281 287 265 257 246 218 229 227 208 196 201 185 182 185 189 186 188 194 196 194 191
226 177 192 262 257 194 185 213 201 221 206 214 225 187 194 219 225 197 124 174 136 102 89 66 16 7 357 347 353 348 335 311 287 308 320 309 297 273 258 248 234 243 179 190 199 194 197 192 192 196 202 197 199 202
346 22 321 187 217 231 230 217 208 217 222 217 215 199 215 205 204 86 68 81 89 76 58 30 3 345 334 339 345 324 312 323 280 265 263 257 254 272 279 290 328 20 211 175 204 205 202 197 195 197 198 200 193 193
336 355 322 233 215 213 229 228 236 223 1 232 235 220 204 71 41 62 47 34 30 22 4 351 350 15 319 303 295 293 303 295 292 276 274 275 265 230 213 240 251 234 227 207 198 206 207 194 197 199 200 203 195 184
318 336 302 286 247 222 212 354 341 50 11 0 334 251 192 102 47 26 39 41 44 41 26 15 2 358 347 338 328 322 255 245 273 284 284 298 10 17 328 284 260 233 207 211 188 163 148 151 148 174 181 174 177 178
291 293 292 311 301 42 6 342 250 216 82 320 5 298 335 84 103 44 37 13 29 47 39 27 18 17 1 358 350 334 323 63 342 301 280 277 272 276 291 277 259 223 199 197 187 184 174 181 189 185 187 193 198 197
303 329 324 293 329 330 324 347 314 256 174 202 170 183 172 190 121 78 10 358 31 27 19 11 2 352 341 334 320 307 286 295 307 300 304 291 286 280 252 231 220 220 222 204 194 195 193 198 199 199 200 206 215 211
296 306 351 330 325 334 336 327 274 344 215 181 86 39 45 18 75 69 77 24 15 20 2 348 338 325 319 332 354 350 352 354 345 332 319 305 286 280 280 254 239 228 229 227 216 211 193 198 205 203 205 207 204 201